Weather History for Albert Lea, MN

Change the Weather History Date:

Saturday, December 8, 2012

  Actual Average Record
Temperature  
Mean Temperature 30 °F -  
Max Temperature 35 °F 32 °F 46 °F (1998)
Min Temperature 24 °F 18 °F -2 °F (2005)
Degree Days  
Heating Degree Days 36    
Moisture  
Dew Point 26 °F    
Average Humidity 87    
Maximum Humidity 100    
Minimum Humidity 65    
Precipitation  
Precipitation 0.00 in - - ()
Sea Level Pressure  
Sea Level Pressure 29.98 in    
Wind  
Wind Speed 7 mph (ESE)    
Max Wind Speed 17 mph    
Max Gust Speed 23 mph    
Visibility 7 miles    
Events      
Averages and records for this station are not official NWS values.
T = Trace of Precipitation, MM = Missing Value Source: NWS Daily Summary

Daily Weather History Graph

Daily Weather History Graph

Search for Another Location

Airport:

Trip Planner

Search our weather history database for the weather conditions in past years. The results will help you decide how hot, cold, wet, or windy it might be!

Date:

Astronomy

Dec. 08, 2012 Rise Set
Actual Time 7:34 AM CST 4:36 PM CST
Civil Twilight 7:02 AM CST 5:09 PM CST
Nautical Twilight 6:26 AM CST 5:45 PM CST
Astronomical Twilight 5:51 AM CST 6:19 PM CST
Moon 1:51 AM CST (12/8) 1:14 PM CST (12/8)
Length of Visible Light 10h 06m
Length of Day
9h 01m
Waning Crescent, 28% of the Moon is Illuminated
Dec 8
Waning Crescent
Dec 13
New
Dec 19
First Quarter
Dec 28
Full
Jan 4
Last Quarter

Hourly Weather History & Observations

Time (CST) Temp. Windchill Dew Point Humidity Pressure Visibility Wind Dir Wind Speed Gust Speed Precip Events Conditions
12:14 AM 26.6 °F 20.0 °F 26.6 °F 100% 29.99 in 7.0 mi NNE 5.8 mph - N/A   Overcast
12:33 AM 26.6 °F 19.1 °F 26.6 °F 100% 29.98 in 7.0 mi NE 6.9 mph - N/A   Overcast
12:54 AM 26.6 °F 19.1 °F 26.6 °F 100% 29.97 in 7.0 mi NE 6.9 mph - N/A   Overcast
1:14 AM 26.6 °F 19.1 °F 26.6 °F 100% 29.97 in 7.0 mi ENE 6.9 mph - N/A   Overcast
1:33 AM 26.6 °F 20.0 °F 26.6 °F 100% 29.97 in 7.0 mi ENE 5.8 mph - N/A   Overcast
1:54 AM 26.6 °F 20.0 °F 26.6 °F 100% 29.98 in 7.0 mi East 5.8 mph - N/A   Overcast
2:14 AM 26.6 °F 21.2 °F 26.6 °F 100% 29.98 in 7.0 mi NE 4.6 mph - N/A   Overcast
2:54 AM 24.8 °F 19.1 °F 24.8 °F 100% 29.98 in 5.0 mi ENE 4.6 mph - N/A   Overcast
3:14 AM 24.8 °F 20.5 °F 24.8 °F 100% 29.99 in 5.0 mi NNE 3.5 mph - N/A   Overcast
3:33 AM 24.8 °F 19.1 °F 24.8 °F 100% 29.98 in 4.0 mi NE 4.6 mph - N/A   Overcast
3:52 AM 24.8 °F 19.1 °F 24.8 °F 100% 29.98 in 4.0 mi NNE 4.6 mph - N/A   Overcast
4:08 AM 24.8 °F 20.5 °F 24.8 °F 100% 29.99 in 3.0 mi NE 3.5 mph - N/A   Overcast
4:33 AM 24.8 °F 20.5 °F 24.8 °F 100% 29.99 in 3.0 mi ENE 3.5 mph - N/A   Overcast
4:54 AM 24.8 °F 20.5 °F 24.8 °F 100% 30.00 in 3.0 mi NE 3.5 mph - N/A   Overcast
5:14 AM 32.0 °F 26.4 °F 24.8 °F 75% 30.00 in 2.5 mi ENE 5.8 mph - N/A   Mist
5:33 AM 24.8 °F 17.9 °F 24.8 °F 100% 30.00 in - NE 5.8 mph - N/A   Overcast
5:54 AM 24.8 °F 16.1 °F 24.8 °F 100% 30.00 in 1.5 mi ENE 8.1 mph - N/A   Overcast
6:14 AM 24.8 °F 17.9 °F 24.8 °F 100% 30.00 in 1.8 mi ENE 5.8 mph - N/A   Overcast
6:34 AM 24.8 °F 19.1 °F 24.8 °F 100% 30.00 in 2.0 mi ENE 4.6 mph - N/A   Overcast
6:54 AM 24.8 °F 20.5 °F 24.8 °F 100% 30.01 in 3.0 mi ESE 3.5 mph - N/A   Overcast
7:14 AM 24.8 °F 17.9 °F 24.8 °F 100% 30.00 in 2.0 mi ESE 5.8 mph - N/A   Overcast
7:34 AM 24.8 °F 19.1 °F 24.8 °F 100% 30.00 in 2.0 mi ESE 4.6 mph - N/A   Overcast
7:54 AM 24.8 °F 19.1 °F 24.8 °F 100% 30.01 in 1.0 mi ESE 4.6 mph - N/A   Overcast
8:13 AM 24.8 °F 17.9 °F 24.8 °F 100% 30.01 in 1.0 mi East 5.8 mph - N/A   Overcast
8:34 AM 24.8 °F 20.5 °F 24.8 °F 100% 30.01 in 1.0 mi East 3.5 mph - N/A   Overcast
8:54 AM 24.8 °F 19.1 °F 24.8 °F 100% 30.02 in 1.2 mi ESE 4.6 mph - N/A   Overcast
9:14 AM 26.6 °F 21.2 °F 26.6 °F 100% 30.02 in 1.8 mi East 4.6 mph - N/A   Overcast
9:34 AM 26.6 °F 21.2 °F 26.6 °F 100% 30.01 in 2.5 mi East 4.6 mph - N/A   Overcast
9:54 AM 26.6 °F 20.0 °F 26.6 °F 100% 30.02 in 2.0 mi ESE 5.8 mph - N/A   Overcast
10:14 AM 26.6 °F 21.2 °F 26.6 °F 100% 30.02 in 2.5 mi ESE 4.6 mph - N/A   Overcast
10:34 AM 28.4 °F 23.3 °F 26.6 °F 93% 30.02 in 5.0 mi East 4.6 mph - N/A   Scattered Clouds
10:54 AM 28.4 °F 21.2 °F 28.4 °F 100% 30.02 in 7.0 mi East 6.9 mph - N/A   Clear
11:14 AM 30.2 °F 21.9 °F 26.6 °F 86% 30.01 in 10.0 mi ESE 9.2 mph - N/A   Clear
11:34 AM 32.0 °F 24.8 °F 26.6 °F 80% 30.00 in 10.0 mi ESE 8.1 mph - N/A   Scattered Clouds
11:53 AM 33.8 °F 27.7 °F 26.6 °F 75% 29.99 in 10.0 mi ESE 6.9 mph - N/A   Clear
12:14 PM 33.8 °F 26.4 °F 26.6 °F 75% 29.98 in 10.0 mi ESE 9.2 mph - N/A   Clear
12:34 PM 33.8 °F 27.0 °F 26.6 °F 75% 29.97 in 10.0 mi ESE 8.1 mph - N/A   Clear
12:53 PM 33.8 °F 26.4 °F 26.6 °F 75% 29.98 in 10.0 mi SE 9.2 mph - N/A   Clear
1:14 PM 33.8 °F 27.0 °F 26.6 °F 75% 29.97 in 10.0 mi ESE 8.1 mph - N/A   Clear
1:34 PM 35.6 °F 28.0 °F 26.6 °F 70% 29.98 in 10.0 mi SSE 10.4 mph - N/A   Clear
1:53 PM 35.6 °F 29.2 °F 26.6 °F 70% 29.97 in 10.0 mi SSE 8.1 mph - N/A   Clear
2:14 PM 35.6 °F 28.0 °F 26.6 °F 70% 29.96 in 10.0 mi SE 10.4 mph - N/A   Clear
2:34 PM 35.6 °F 28.6 °F 26.6 °F 70% 29.96 in 10.0 mi SE 9.2 mph - N/A   Clear
2:54 PM 35.6 °F 28.6 °F 24.8 °F 65% 29.96 in 10.0 mi SE 9.2 mph - N/A   Clear
3:14 PM 33.8 °F 27.0 °F 26.6 °F 75% 29.96 in 10.0 mi SE 8.1 mph - N/A   Clear
3:34 PM 33.8 °F 27.0 °F 24.8 °F 70% 29.96 in 10.0 mi SE 8.1 mph - N/A   Scattered Clouds
3:54 PM 33.8 °F 27.0 °F 24.8 °F 70% 29.97 in 10.0 mi SE 8.1 mph - N/A   Clear
4:14 PM 33.8 °F 26.4 °F 24.8 °F 70% 29.96 in 10.0 mi ESE 9.2 mph - N/A   Clear
4:33 PM 32.0 °F 24.8 °F 24.8 °F 75% 29.96 in 10.0 mi SE 8.1 mph - N/A   Clear
4:54 PM 32.0 °F 24.8 °F 24.8 °F 75% 29.95 in 10.0 mi SE 8.1 mph - N/A   Clear
5:14 PM 32.0 °F 24.8 °F 24.8 °F 75% 29.94 in 10.0 mi ESE 8.1 mph - N/A   Clear
5:34 PM 30.2 °F 23.4 °F 24.8 °F 80% 29.95 in 10.0 mi SE 6.9 mph - N/A   Clear
5:54 PM 30.2 °F 23.4 °F 24.8 °F 80% 29.95 in 10.0 mi SE 6.9 mph - N/A   Clear
5:59 PM 30.2 °F 24.3 °F 24.8 °F 80% 29.96 in 10.0 mi SE 5.8 mph - N/A   Clear
6:34 PM 30.2 °F 22.6 °F 24.8 °F 80% 29.97 in 10.0 mi SE 8.1 mph - N/A   Clear
6:54 PM 30.2 °F 23.4 °F 24.8 °F 80% 29.97 in 10.0 mi SE 6.9 mph - N/A   Clear
7:14 PM 30.2 °F 22.6 °F 24.8 °F 80% 29.97 in 10.0 mi SE 8.1 mph - N/A   Clear
7:34 PM 30.2 °F 21.3 °F 24.8 °F 80% 29.97 in 10.0 mi SE 10.4 mph - N/A   Clear
7:53 PM 32.0 °F 24.2 °F 24.8 °F 75% 29.96 in 10.0 mi SE 9.2 mph - N/A   Scattered Clouds
8:14 PM 32.0 °F 23.0 °F 24.8 °F 75% 29.96 in 10.0 mi SE 11.5 mph 16.1 mph N/A   Clear
9:14 PM 32.0 °F 22.5 °F 24.8 °F 75% 29.96 in 10.0 mi SE 12.7 mph - N/A   Overcast
9:33 PM 32.0 °F 23.0 °F 26.6 °F 80% 29.96 in 10.0 mi SE 11.5 mph - N/A   Overcast
9:54 PM 32.0 °F 22.5 °F 26.6 °F 80% 29.95 in 10.0 mi SE 12.7 mph - N/A   Overcast
10:14 PM 32.0 °F 22.1 °F 26.6 °F 80% 29.95 in 10.0 mi SE 13.8 mph 18.4 mph N/A   Overcast
10:34 PM 32.0 °F 21.2 °F 26.6 °F 80% 29.94 in 10.0 mi SE 16.1 mph 23.0 mph N/A   Overcast
10:54 PM 32.0 °F 20.8 °F 26.6 °F 80% 29.93 in 10.0 mi SE 17.3 mph 21.9 mph N/A   Overcast
11:14 PM 32.0 °F 21.6 °F 28.4 °F 87% 29.93 in 10.0 mi SE 15.0 mph 20.7 mph N/A   Mostly Cloudy
11:33 PM 32.0 °F 22.1 °F 28.4 °F 87% 29.93 in 10.0 mi SE 13.8 mph - N/A   Mostly Cloudy
11:54 PM 32.0 °F 23.0 °F 28.4 °F 87% 29.94 in 10.0 mi SE 11.5 mph 17.3 mph N/A   Mostly Cloudy